Time,TemperatureF,DewpointF,PressureIn,WindDirection,WindDirectionDegrees,WindSpeedMPH,WindSpeedGustMPH,Humidity,HourlyPrecipIn,Conditions,Clouds,dailyrainin,SoftwareType,DateUTC
2013-08-09 00:00:00,63.1,56.8,29.97,N/A,-737280,0.0,-999.0,80,0.00,,,0.00,Wunderground v.1.15,2013-08-09 04:00:00,
2013-08-09 00:05:00,63.1,56.8,29.97,N/A,-737280,0.0,-999.0,80,0.00,,,0.00,Wunderground v.1.15,2013-08-09 04:05:00,
2013-08-09 00:10:00,63.3,57.0,29.97,N/A,-737280,0.0,-999.0,80,0.00,,,0.00,Wunderground v.1.15,2013-08-09 04:10:00,
2013-08-09 00:15:00,63.3,57.0,29.97,N/A,-737280,0.0,-999.0,80,0.00,,,0.00,Wunderground v.1.15,2013-08-09 04:15:00,
2013-08-09 00:20:00,63.4,56.8,29.97,N/A,-737280,0.0,-999.0,79,0.00,,,0.00,Wunderground v.1.15,2013-08-09 04:20:00,
2013-08-09 00:25:00,63.6,57.0,29.97,N/A,-737280,0.0,-999.0,79,0.00,,,0.00,Wunderground v.1.15,2013-08-09 04:25:00,
2013-08-09 00:30:00,63.7,57.1,29.96,N/A,-737280,0.0,-999.0,79,0.00,,,0.00,Wunderground v.1.15,2013-08-09 04:30:00,
2013-08-09 00:35:00,63.6,57.0,29.96,N/A,-737280,0.0,-999.0,79,0.00,,,0.00,Wunderground v.1.15,2013-08-09 04:35:00,
2013-08-09 00:40:00,63.7,57.1,29.97,N/A,-737280,0.0,-999.0,79,0.00,,,0.00,Wunderground v.1.15,2013-08-09 04:40:00,
2013-08-09 00:45:00,63.6,57.0,29.97,N/A,-737280,0.0,-999.0,79,0.00,,,0.00,Wunderground v.1.15,2013-08-09 04:45:00,
2013-08-09 00:50:00,63.5,56.9,29.97,N/A,-737280,0.0,-999.0,79,0.00,,,0.00,Wunderground v.1.15,2013-08-09 04:50:00,
2013-08-09 00:55:00,63.5,56.9,29.97,N/A,-737280,0.0,-999.0,79,0.00,,,0.00,Wunderground v.1.15,2013-08-09 04:55:00,
2013-08-09 01:00:00,63.6,57.0,29.97,N/A,-737280,0.0,-999.0,79,0.00,,,0.00,Wunderground v.1.15,2013-08-09 05:00:00,
2013-08-09 01:05:00,63.6,57.0,29.97,N/A,-737280,0.0,-999.0,79,0.00,,,0.00,Wunderground v.1.15,2013-08-09 05:05:00,
2013-08-09 01:10:00,63.5,56.9,29.97,N/A,-737280,0.0,-999.0,79,0.00,,,0.00,Wunderground v.1.15,2013-08-09 05:10:00,
2013-08-09 01:15:00,63.5,56.9,29.97,N/A,-737280,0.0,-999.0,79,0.00,,,0.00,Wunderground v.1.15,2013-08-09 05:15:00,
2013-08-09 01:20:00,63.5,56.9,29.97,N/A,-737280,0.0,-999.0,79,0.00,,,0.00,Wunderground v.1.15,2013-08-09 05:20:00,
2013-08-09 01:25:00,63.4,56.8,29.97,N/A,-737280,0.0,-999.0,79,0.00,,,0.00,Wunderground v.1.15,2013-08-09 05:25:00,
2013-08-09 01:30:00,63.3,56.7,29.97,N/A,-737280,0.0,-999.0,79,0.00,,,0.00,Wunderground v.1.15,2013-08-09 05:30:00,
2013-08-09 01:35:00,63.3,56.7,29.97,N/A,-737280,0.0,-999.0,79,0.00,,,0.00,Wunderground v.1.15,2013-08-09 05:35:00,
2013-08-09 01:40:00,63.3,56.7,29.97,N/A,-737280,0.0,-999.0,79,0.00,,,0.00,Wunderground v.1.15,2013-08-09 05:40:00,
2013-08-09 01:45:00,63.4,56.8,29.97,N/A,-737280,0.0,-999.0,79,0.00,,,0.00,Wunderground v.1.15,2013-08-09 05:45:00,
2013-08-09 01:50:00,63.5,56.9,29.96,N/A,-737280,0.0,-999.0,79,0.00,,,0.00,Wunderground v.1.15,2013-08-09 05:50:00,
2013-08-09 01:55:00,63.5,57.2,29.96,N/A,-737280,0.0,-999.0,80,0.00,,,0.00,Wunderground v.1.15,2013-08-09 05:55:00,
2013-08-09 02:00:00,63.5,56.9,29.96,N/A,-737280,0.0,-999.0,79,0.00,,,0.00,Wunderground v.1.15,2013-08-09 06:00:00,
2013-08-09 02:05:00,63.5,56.9,29.96,N/A,-737280,0.0,-999.0,79,0.00,,,0.00,Wunderground v.1.15,2013-08-09 06:05:00,
2013-08-09 02:10:00,63.6,57.0,29.96,N/A,-737280,0.0,-999.0,79,0.00,,,0.00,Wunderground v.1.15,2013-08-09 06:10:00,
2013-08-09 02:15:00,63.6,57.0,29.95,N/A,-737280,0.0,-999.0,79,0.00,,,0.00,Wunderground v.1.15,2013-08-09 06:15:00,
2013-08-09 02:20:00,63.6,57.0,29.96,N/A,-737280,0.0,-999.0,79,0.00,,,0.00,Wunderground v.1.15,2013-08-09 06:20:00,
2013-08-09 02:25:00,63.6,57.0,29.96,N/A,-737280,0.0,-999.0,79,0.00,,,0.00,Wunderground v.1.15,2013-08-09 06:25:00,
2013-08-09 02:30:00,63.6,57.0,29.96,N/A,-737280,0.0,-999.0,79,0.00,,,0.00,Wunderground v.1.15,2013-08-09 06:30:00,
2013-08-09 02:35:00,63.6,56.6,29.96,N/A,-737280,0.0,-999.0,78,0.00,,,0.00,Wunderground v.1.15,2013-08-09 06:35:00,
2013-08-09 02:40:00,63.7,56.7,29.96,N/A,-737280,0.0,-999.0,78,0.00,,,0.00,Wunderground v.1.15,2013-08-09 06:40:00,
2013-08-09 02:45:00,63.7,56.4,29.96,N/A,-737280,0.0,-999.0,77,0.00,,,0.00,Wunderground v.1.15,2013-08-09 06:45:00,
2013-08-09 02:50:00,63.7,56.0,29.95,N/A,-737280,0.0,-999.0,76,0.00,,,0.00,Wunderground v.1.15,2013-08-09 06:50:00,
2013-08-09 02:55:00,63.8,56.1,29.95,N/A,-737280,0.0,-999.0,76,0.00,,,0.00,Wunderground v.1.15,2013-08-09 06:55:00,
2013-08-09 03:00:00,64.0,55.5,29.95,N/A,-737280,0.0,-999.0,74,0.00,,,0.00,Wunderground v.1.15,2013-08-09 07:00:00,
2013-08-09 03:05:00,64.3,55.8,29.94,N/A,-737280,0.0,-999.0,74,0.00,,,0.00,Wunderground v.1.15,2013-08-09 07:05:00,
2013-08-09 03:10:00,64.5,55.7,29.94,N/A,-737280,0.0,-999.0,73,0.00,,,0.00,Wunderground v.1.15,2013-08-09 07:10:00,
2013-08-09 03:15:00,64.6,55.7,29.94,N/A,-737280,0.0,-999.0,73,0.00,,,0.00,Wunderground v.1.15,2013-08-09 07:15:00,
2013-08-09 03:20:00,64.6,56.1,29.94,N/A,-737280,0.0,-999.0,74,0.00,,,0.00,Wunderground v.1.15,2013-08-09 07:20:00,
2013-08-09 03:25:00,64.3,55.8,29.94,N/A,-737280,0.0,-999.0,74,0.00,,,0.00,Wunderground v.1.15,2013-08-09 07:25:00,
2013-08-09 03:30:00,64.1,54.5,29.94,N/A,-737280,0.0,-999.0,71,0.00,,,0.00,Wunderground v.1.15,2013-08-09 07:30:00,
2013-08-09 03:35:00,63.9,54.7,29.94,N/A,-737280,0.0,-999.0,72,0.00,,,0.00,Wunderground v.1.15,2013-08-09 07:35:00,
2013-08-09 03:40:00,63.9,54.7,29.94,N/A,-737280,0.0,-999.0,72,0.00,,,0.00,Wunderground v.1.15,2013-08-09 07:40:00,
2013-08-09 03:45:00,63.9,55.1,29.94,N/A,-737280,0.0,-999.0,73,0.00,,,0.00,Wunderground v.1.15,2013-08-09 07:45:00,
2013-08-09 03:50:00,63.7,54.9,29.94,N/A,-737280,0.0,-999.0,73,0.00,,,0.00,Wunderground v.1.15,2013-08-09 07:50:00,
2013-08-09 03:55:00,63.4,53.8,29.94,N/A,-737280,0.0,-999.0,71,0.00,,,0.00,Wunderground v.1.15,2013-08-09 07:55:00,
2013-08-09 04:00:00,63.3,52.6,29.93,N/A,-737280,0.0,-999.0,68,0.00,,,0.00,Wunderground v.1.15,2013-08-09 08:00:00,
2013-08-09 04:05:00,63.3,53.0,29.94,N/A,-737280,0.0,-999.0,69,0.00,,,0.00,Wunderground v.1.15,2013-08-09 08:05:00,
2013-08-09 04:10:00,63.4,53.0,29.94,N/A,-737280,0.0,-999.0,69,0.00,,,0.00,Wunderground v.1.15,2013-08-09 08:10:00,
2013-08-09 04:15:00,63.5,53.1,29.94,N/A,-737280,0.0,-999.0,69,0.00,,,0.00,Wunderground v.1.15,2013-08-09 08:15:00,
2013-08-09 04:20:00,63.4,52.7,29.94,N/A,-737280,0.0,-999.0,68,0.00,,,0.00,Wunderground v.1.15,2013-08-09 08:20:00,
2013-08-09 04:25:00,63.2,52.5,29.94,N/A,-737280,0.0,-999.0,68,0.00,,,0.00,Wunderground v.1.15,2013-08-09 08:25:00,
2013-08-09 04:30:00,63.2,52.1,29.94,N/A,-737280,0.0,-999.0,67,0.00,,,0.00,Wunderground v.1.15,2013-08-09 08:30:00,
2013-08-09 04:35:00,63.3,52.2,29.94,N/A,-737280,0.0,-999.0,67,0.00,,,0.00,Wunderground v.1.15,2013-08-09 08:35:00,
2013-08-09 04:40:00,63.5,51.9,29.94,N/A,-737280,0.0,-999.0,66,0.00,,,0.00,Wunderground v.1.15,2013-08-09 08:40:00,
2013-08-09 04:45:00,63.5,52.3,29.94,N/A,-737280,0.0,-999.0,67,0.00,,,0.00,Wunderground v.1.15,2013-08-09 08:45:00,
2013-08-09 04:50:00,63.3,51.7,29.94,N/A,-737280,0.0,-999.0,66,0.00,,,0.00,Wunderground v.1.15,2013-08-09 08:50:00,
2013-08-09 04:55:00,63.1,51.6,29.94,N/A,-737280,0.0,-999.0,66,0.00,,,0.00,Wunderground v.1.15,2013-08-09 08:55:00,
2013-08-09 05:00:00,62.9,51.4,29.94,N/A,-737280,0.0,-999.0,66,0.00,,,0.00,Wunderground v.1.15,2013-08-09 09:00:00,
2013-08-09 05:05:00,62.8,51.3,29.94,N/A,-737280,0.0,-999.0,66,0.00,,,0.00,Wunderground v.1.15,2013-08-09 09:05:00,
2013-08-09 05:10:00,62.8,51.3,29.95,N/A,-737280,0.0,-999.0,66,0.00,,,0.00,Wunderground v.1.15,2013-08-09 09:10:00,
2013-08-09 05:15:00,62.8,51.3,29.95,N/A,-737280,0.0,-999.0,66,0.00,,,0.00,Wunderground v.1.15,2013-08-09 09:15:00,
2013-08-09 05:20:00,62.9,51.0,29.95,N/A,-737280,0.0,-999.0,65,0.00,,,0.00,Wunderground v.1.15,2013-08-09 09:20:00,
2013-08-09 05:25:00,63.0,51.0,29.95,N/A,-737280,0.0,-999.0,65,0.00,,,0.00,Wunderground v.1.15,2013-08-09 09:25:00,
2013-08-09 05:30:00,63.1,51.1,29.95,N/A,-737280,0.0,-999.0,65,0.00,,,0.00,Wunderground v.1.15,2013-08-09 09:30:00,
2013-08-09 05:35:00,63.3,51.3,29.95,N/A,-737280,0.0,-999.0,65,0.00,,,0.00,Wunderground v.1.15,2013-08-09 09:35:00,
2013-08-09 05:40:00,63.3,51.3,29.95,N/A,-737280,0.0,-999.0,65,0.00,,,0.00,Wunderground v.1.15,2013-08-09 09:40:00,
2013-08-09 05:45:00,63.2,51.2,29.95,N/A,-737280,0.0,-999.0,65,0.00,,,0.00,Wunderground v.1.15,2013-08-09 09:45:00,
2013-08-09 05:50:00,63.4,51.0,29.95,N/A,-737280,0.0,-999.0,64,0.00,,,0.00,Wunderground v.1.15,2013-08-09 09:50:00,
2013-08-09 05:55:00,63.2,53.3,29.95,N/A,-737280,0.0,-999.0,70,0.00,,,0.00,Wunderground v.1.15,2013-08-09 09:55:00,
2013-08-09 06:00:00,61.7,53.7,29.95,N/A,-737280,0.0,-999.0,75,0.00,,,0.00,Wunderground v.1.15,2013-08-09 10:00:00,
2013-08-09 06:05:00,60.4,53.5,29.95,N/A,-737280,0.0,-999.0,78,0.00,,,0.00,Wunderground v.1.15,2013-08-09 10:05:00,
2013-08-09 06:10:00,59.6,54.1,29.95,N/A,-737280,0.0,-999.0,82,0.00,,,0.00,Wunderground v.1.15,2013-08-09 10:10:00,
2013-08-09 06:15:00,59.0,53.5,29.95,North,32767,-999.0,0.0,82,0.00,,,0.00,Wunderground v.1.15,2013-08-09 10:15:00,
2013-08-09 06:20:00,59.5,53.3,29.95,North,32767,-999.0,0.0,80,0.00,,,0.00,Wunderground v.1.15,2013-08-09 10:20:00,
2013-08-09 06:25:00,60.2,52.6,29.96,North,32767,-999.0,0.0,76,0.00,,,0.00,Wunderground v.1.15,2013-08-09 10:25:00,
2013-08-09 06:30:00,60.4,51.7,29.96,N/A,-737280,0.0,-999.0,73,0.00,,,0.00,Wunderground v.1.15,2013-08-09 10:30:00,
2013-08-09 06:35:00,61.4,51.1,29.95,North,32767,-999.0,0.0,69,0.00,,,0.00,Wunderground v.1.15,2013-08-09 10:35:00,
2013-08-09 06:40:00,61.8,51.5,29.96,North,32767,-999.0,0.0,69,0.00,,,0.00,Wunderground v.1.15,2013-08-09 10:40:00,
2013-08-09 06:45:00,61.8,51.9,29.96,N/A,-737280,0.0,-999.0,70,0.00,,,0.00,Wunderground v.1.15,2013-08-09 10:45:00,
2013-08-09 06:50:00,61.5,51.6,29.95,North,32767,-999.0,0.0,70,0.00,,,0.00,Wunderground v.1.15,2013-08-09 10:50:00,
2013-08-09 06:55:00,61.4,51.9,29.95,North,32767,-999.0,0.0,71,0.00,,,0.00,Wunderground v.1.15,2013-08-09 10:55:00,
2013-08-09 07:00:00,61.3,52.2,29.95,N/A,-737280,0.0,-999.0,72,0.00,,,0.00,Wunderground v.1.15,2013-08-09 11:00:00,
2013-08-09 07:05:00,60.9,52.2,29.95,North,32767,-999.0,0.0,73,0.00,,,0.00,Wunderground v.1.15,2013-08-09 11:05:00,
2013-08-09 07:10:00,60.7,52.4,29.96,N/A,-737280,0.0,-999.0,74,0.00,,,0.00,Wunderground v.1.15,2013-08-09 11:10:00,
2013-08-09 07:15:00,60.5,52.2,29.96,North,32767,-999.0,0.0,74,0.00,,,0.00,Wunderground v.1.15,2013-08-09 11:15:00,
2013-08-09 07:20:00,60.5,52.5,29.96,N/A,-737280,0.0,-999.0,75,0.00,,,0.00,Wunderground v.1.15,2013-08-09 11:20:00,
2013-08-09 07:25:00,60.4,52.8,29.96,North,32767,-999.0,0.0,76,0.00,,,0.00,Wunderground v.1.15,2013-08-09 11:25:00,
2013-08-09 07:30:00,60.1,52.1,29.96,North,32767,-999.0,0.0,75,0.00,,,0.00,Wunderground v.1.15,2013-08-09 11:30:00,
2013-08-09 07:35:00,60.1,52.1,29.96,North,32767,-999.0,0.0,75,0.00,,,0.00,Wunderground v.1.15,2013-08-09 11:35:00,
2013-08-09 07:40:00,60.2,52.6,29.96,N/A,-737280,0.0,-999.0,76,0.00,,,0.00,Wunderground v.1.15,2013-08-09 11:40:00,
2013-08-09 07:45:00,60.3,53.1,29.96,North,32767,-999.0,0.0,77,0.00,,,0.00,Wunderground v.1.15,2013-08-09 11:45:00,
2013-08-09 07:50:00,60.3,53.4,29.96,N/A,-737280,0.0,-999.0,78,0.00,,,0.00,Wunderground v.1.15,2013-08-09 11:50:00,
2013-08-09 07:55:00,60.3,52.7,29.96,North,32767,-999.0,0.0,76,0.00,,,0.00,Wunderground v.1.15,2013-08-09 11:55:00,
2013-08-09 08:00:00,60.4,52.1,29.96,N/A,-737280,0.0,-999.0,74,0.00,,,0.00,Wunderground v.1.15,2013-08-09 12:00:00,
2013-08-09 08:05:00,61.0,52.7,29.96,North,32767,-999.0,0.0,74,0.00,,,0.00,Wunderground v.1.15,2013-08-09 12:05:00,
2013-08-09 08:10:00,61.2,52.5,29.97,N/A,-737280,0.0,-999.0,73,0.00,,,0.00,Wunderground v.1.15,2013-08-09 12:10:00,
2013-08-09 08:15:00,62.0,53.6,29.97,North,32767,-999.0,0.0,74,0.00,,,0.00,Wunderground v.1.15,2013-08-09 12:15:00,
2013-08-09 08:20:00,62.2,55.3,29.96,N/A,-737280,0.0,-999.0,78,0.00,,,0.00,Wunderground v.1.15,2013-08-09 12:20:00,
2013-08-09 08:25:00,62.3,56.0,29.96,North,32767,-999.0,0.0,80,0.00,,,0.00,Wunderground v.1.15,2013-08-09 12:25:00,
2013-08-09 08:30:00,62.3,55.4,29.97,NNE,23,0.0,-999.0,78,0.00,,,0.00,Wunderground v.1.15,2013-08-09 12:30:00,
2013-08-09 08:35:00,62.7,55.7,29.97,NNE,27,0.0,0.0,78,0.00,,,0.00,Wunderground v.1.15,2013-08-09 12:35:00,
2013-08-09 08:40:00,63.0,56.0,29.97,N/A,-737280,0.0,-999.0,78,0.00,,,0.00,Wunderground v.1.15,2013-08-09 12:40:00,
2013-08-09 08:45:00,63.9,56.9,29.97,NNE,27,0.0,0.0,78,0.00,,,0.00,Wunderground v.1.15,2013-08-09 12:45:00,
2013-08-09 08:50:00,64.7,56.6,29.97,NNE,27,0.0,0.0,75,0.00,,,0.00,Wunderground v.1.15,2013-08-09 12:50:00,
2013-08-09 08:55:00,65.1,58.4,29.97,NNE,23,1.0,-999.0,79,0.00,,,0.00,Wunderground v.1.15,2013-08-09 12:55:00,
2013-08-09 09:00:00,65.9,59.2,29.97,NNE,27,0.0,2.0,79,0.00,,,0.00,Wunderground v.1.15,2013-08-09 13:00:00,
2013-08-09 09:05:00,66.2,58.0,29.97,NNE,27,1.0,3.0,75,0.00,,,0.00,Wunderground v.1.15,2013-08-09 13:05:00,
2013-08-09 09:10:00,66.3,57.8,29.97,NNE,23,2.0,-999.0,74,0.00,,,0.00,Wunderground v.1.15,2013-08-09 13:10:00,
2013-08-09 09:15:00,66.7,58.5,29.98,NNE,29,2.0,4.0,75,0.00,,,0.00,Wunderground v.1.15,2013-08-09 13:15:00,
2013-08-09 09:20:00,66.9,58.7,29.97,NE,45,3.0,-999.0,75,0.00,,,0.00,Wunderground v.1.15,2013-08-09 13:20:00,
2013-08-09 09:25:00,67.2,58.2,29.98,SE,137,4.0,5.0,73,0.00,,,0.00,Wunderground v.1.15,2013-08-09 13:25:00,
2013-08-09 09:30:00,67.3,59.5,29.97,SE,135,5.0,-999.0,76,0.00,,,0.00,Wunderground v.1.15,2013-08-09 13:30:00,
2013-08-09 09:35:00,67.8,59.6,29.97,SSE,156,6.0,6.0,75,0.00,,,0.00,Wunderground v.1.15,2013-08-09 13:35:00,
2013-08-09 09:40:00,67.9,60.4,29.98,SSE,158,6.0,-999.0,77,0.00,,,0.00,Wunderground v.1.15,2013-08-09 13:40:00,
2013-08-09 09:45:00,68.5,60.3,29.98,SSE,161,6.0,8.0,75,0.00,,,0.00,Wunderground v.1.15,2013-08-09 13:45:00,
2013-08-09 09:50:00,68.8,60.9,29.98,SSE,167,6.0,6.0,76,0.00,,,0.00,Wunderground v.1.15,2013-08-09 13:50:00,
2013-08-09 09:55:00,69.0,60.0,29.98,SSE,158,6.0,-999.0,73,0.00,,,0.00,Wunderground v.1.15,2013-08-09 13:55:00,
2013-08-09 10:00:00,69.6,59.8,29.97,SSE,167,6.0,6.0,71,0.00,,,0.00,Wunderground v.1.15,2013-08-09 14:00:00,
2013-08-09 10:05:00,70.0,59.8,29.97,SSE,167,6.0,6.0,70,0.00,,,0.00,Wunderground v.1.15,2013-08-09 14:05:00,
2013-08-09 10:10:00,70.1,58.6,29.97,SSE,158,6.0,-999.0,67,0.00,,,0.00,Wunderground v.1.15,2013-08-09 14:10:00,
2013-08-09 10:15:00,70.4,59.3,29.97,SSE,167,5.0,6.0,68,0.00,,,0.00,Wunderground v.1.15,2013-08-09 14:15:00,
2013-08-09 10:20:00,70.7,59.6,29.96,SSE,158,6.0,-999.0,68,0.00,,,0.00,Wunderground v.1.15,2013-08-09 14:20:00,
2013-08-09 10:25:00,71.2,58.4,29.96,South,188,6.0,8.0,64,0.00,,,0.00,Wunderground v.1.15,2013-08-09 14:25:00,
2013-08-09 10:30:00,71.5,60.0,29.96,South,180,6.0,-999.0,67,0.00,,,0.00,Wunderground v.1.15,2013-08-09 14:30:00,
2013-08-09 10:35:00,72.0,58.7,29.96,South,190,6.0,7.0,63,0.00,,,0.00,Wunderground v.1.15,2013-08-09 14:35:00,
2013-08-09 10:40:00,72.1,58.4,29.97,South,180,6.0,-999.0,62,0.00,,,0.00,Wunderground v.1.15,2013-08-09 14:40:00,
2013-08-09 10:45:00,72.6,58.8,29.97,SSW,201,6.0,9.0,62,0.00,,,0.00,Wunderground v.1.15,2013-08-09 14:45:00,
2013-08-09 10:50:00,72.5,60.1,29.97,SSW,203,6.0,-999.0,65,0.00,,,0.00,Wunderground v.1.15,2013-08-09 14:50:00,
2013-08-09 10:55:00,72.5,59.6,29.97,SSW,202,7.0,7.0,64,0.00,,,0.00,Wunderground v.1.15,2013-08-09 14:55:00,
2013-08-09 11:00:00,72.9,60.9,29.97,SSW,202,6.0,7.0,66,0.00,,,0.00,Wunderground v.1.15,2013-08-09 15:00:00,
2013-08-09 11:05:00,73.1,61.1,29.97,SSW,203,5.0,8.0,66,0.00,,,0.00,Wunderground v.1.15,2013-08-09 15:05:00,
2013-08-09 11:10:00,73.2,60.3,29.97,SSW,203,6.0,-999.0,64,0.00,,,0.00,Wunderground v.1.15,2013-08-09 15:10:00,
2013-08-09 11:15:00,73.6,61.1,29.97,SSW,206,6.0,8.0,65,0.00,,,0.00,Wunderground v.1.15,2013-08-09 15:15:00,
2013-08-09 11:20:00,74.0,61.0,29.97,SSW,206,7.0,7.0,64,0.00,,,0.00,Wunderground v.1.15,2013-08-09 15:20:00,
2013-08-09 11:25:00,73.7,60.3,29.96,SSW,206,6.0,7.0,63,0.00,,,0.00,Wunderground v.1.15,2013-08-09 15:25:00,
2013-08-09 11:30:00,73.5,61.0,29.97,SSW,203,5.0,-999.0,65,0.00,,,0.00,Wunderground v.1.15,2013-08-09 15:30:00,
2013-08-09 11:35:00,73.4,62.2,29.96,SSW,205,5.0,6.0,68,0.00,,,0.00,Wunderground v.1.15,2013-08-09 15:35:00,
2013-08-09 11:40:00,73.7,61.6,29.96,SSW,203,8.0,-999.0,66,0.00,,,0.00,Wunderground v.1.15,2013-08-09 15:40:00,
2013-08-09 11:45:00,74.5,60.6,29.97,SSW,207,8.0,10.0,62,0.00,,,0.00,Wunderground v.1.15,2013-08-09 15:45:00,
2013-08-09 11:50:00,74.6,60.3,29.97,SSW,203,6.0,-999.0,61,0.00,,,0.00,Wunderground v.1.15,2013-08-09 15:50:00,
2013-08-09 11:55:00,74.5,60.2,29.97,SSW,208,8.0,9.0,61,0.00,,,0.00,Wunderground v.1.15,2013-08-09 15:55:00,
2013-08-09 12:00:00,74.7,60.4,29.97,SW,225,7.0,-999.0,61,0.00,,,0.00,Wunderground v.1.15,2013-08-09 16:00:00,
2013-08-09 12:05:00,75.2,60.8,29.97,SSW,209,7.0,10.0,61,0.00,,,0.00,Wunderground v.1.15,2013-08-09 16:05:00,
2013-08-09 12:10:00,75.2,59.9,29.96,SW,218,8.0,8.0,59,0.00,,,0.00,Wunderground v.1.15,2013-08-09 16:10:00,
2013-08-09 12:15:00,75.4,61.0,29.96,SW,218,7.0,8.0,61,0.00,,,0.00,Wunderground v.1.15,2013-08-09 16:15:00,
2013-08-09 12:20:00,75.5,59.7,29.97,SSW,203,9.0,-999.0,58,0.00,,,0.00,Wunderground v.1.15,2013-08-09 16:20:00,
2013-08-09 12:25:00,75.9,61.0,29.96,SW,221,7.0,8.0,60,0.00,,,0.00,Wunderground v.1.15,2013-08-09 16:25:00,
2013-08-09 12:30:00,76.0,61.1,29.96,SW,225,9.0,-999.0,60,0.00,,,0.00,Wunderground v.1.15,2013-08-09 16:30:00,
2013-08-09 12:35:00,76.0,60.2,29.97,SW,219,8.0,8.0,58,0.00,,,0.00,Wunderground v.1.15,2013-08-09 16:35:00,
2013-08-09 12:40:00,76.2,59.4,29.96,SW,225,8.0,-999.0,56,0.00,,,0.00,Wunderground v.1.15,2013-08-09 16:40:00,
2013-08-09 12:45:00,76.2,59.4,29.96,WSW,240,7.0,8.0,56,0.00,,,0.00,Wunderground v.1.15,2013-08-09 16:45:00,
2013-08-09 12:50:00,76.2,60.3,29.96,WSW,248,7.0,-999.0,58,0.00,,,0.00,Wunderground v.1.15,2013-08-09 16:50:00,
2013-08-09 12:55:00,76.3,58.9,29.96,WSW,244,7.0,8.0,55,0.00,,,0.00,Wunderground v.1.15,2013-08-09 16:55:00,
2013-08-09 13:00:00,76.4,61.0,29.96,SW,227,8.0,9.0,59,0.00,,,0.00,Wunderground v.1.15,2013-08-09 17:00:00,
2013-08-09 13:05:00,76.6,61.7,29.96,SW,225,8.0,-999.0,60,0.00,,,0.00,Wunderground v.1.15,2013-08-09 17:05:00,
2013-08-09 13:10:00,76.6,60.2,29.96,WSW,257,9.0,12.0,57,0.00,,,0.00,Wunderground v.1.15,2013-08-09 17:10:00,
2013-08-09 13:15:00,76.7,60.8,29.96,West,270,6.0,-999.0,58,0.00,,,0.00,Wunderground v.1.15,2013-08-09 17:15:00,
2013-08-09 13:20:00,76.8,60.9,29.96,West,259,6.0,7.0,58,0.00,,,0.00,Wunderground v.1.15,2013-08-09 17:20:00,
2013-08-09 13:25:00,76.3,60.4,29.96,WSW,254,8.0,8.0,58,0.00,,,0.00,Wunderground v.1.15,2013-08-09 17:25:00,
2013-08-09 13:30:00,76.1,60.2,29.96,WSW,248,7.0,-999.0,58,0.00,,,0.00,Wunderground v.1.15,2013-08-09 17:30:00,
2013-08-09 13:35:00,76.0,61.1,29.96,WSW,238,8.0,10.0,60,0.00,,,0.00,Wunderground v.1.15,2013-08-09 17:35:00,
2013-08-09 13:40:00,76.3,61.9,29.96,SW,225,9.0,-999.0,61,0.00,,,0.00,Wunderground v.1.15,2013-08-09 17:40:00,
2013-08-09 13:45:00,76.7,61.8,29.96,West,269,8.0,9.0,60,0.00,,,0.00,Wunderground v.1.15,2013-08-09 17:45:00,
2013-08-09 13:50:00,76.9,61.0,29.96,West,270,7.0,-999.0,58,0.00,,,0.00,Wunderground v.1.15,2013-08-09 17:50:00,
2013-08-09 13:55:00,76.9,60.0,29.96,SW,217,7.0,11.0,56,0.00,,,0.00,Wunderground v.1.15,2013-08-09 17:55:00,
2013-08-09 14:00:00,76.7,60.3,29.96,WSW,248,5.0,-999.0,57,0.00,,,0.00,Wunderground v.1.15,2013-08-09 18:00:00,
2013-08-09 14:05:00,77.2,62.2,29.96,West,273,6.0,8.0,60,0.00,,,0.00,Wunderground v.1.15,2013-08-09 18:05:00,
2013-08-09 14:10:00,77.3,62.3,29.95,SW,225,9.0,-999.0,60,0.00,,,0.00,Wunderground v.1.15,2013-08-09 18:10:00,
2013-08-09 14:15:00,77.3,61.9,29.95,West,271,8.0,9.0,59,0.00,,,0.00,Wunderground v.1.15,2013-08-09 18:15:00,
2013-08-09 14:20:00,77.3,62.3,29.95,West,261,7.0,7.0,60,0.00,,,0.00,Wunderground v.1.15,2013-08-09 18:20:00,
2013-08-09 14:25:00,77.6,61.7,29.95,SW,225,5.0,9.0,58,0.00,,,0.00,Wunderground v.1.15,2013-08-09 18:25:00,
2013-08-09 14:30:00,77.5,63.5,29.95,SW,225,9.0,-999.0,62,0.00,,,0.00,Wunderground v.1.15,2013-08-09 18:30:00,
2013-08-09 14:35:00,77.4,63.4,29.95,WSW,256,8.0,11.0,62,0.00,,,0.00,Wunderground v.1.15,2013-08-09 18:35:00,
2013-08-09 14:40:00,77.7,64.1,29.95,SW,225,8.0,-999.0,63,0.00,,,0.00,Wunderground v.1.15,2013-08-09 18:40:00,
2013-08-09 14:45:00,77.8,62.8,29.95,SW,234,8.0,8.0,60,0.00,,,0.00,Wunderground v.1.15,2013-08-09 18:45:00,
2013-08-09 14:55:00,77.5,63.0,29.95,SW,231,8.0,14.0,61,0.00,,,0.00,Wunderground v.1.15,2013-08-09 18:55:00,
2013-08-09 15:00:00,77.7,63.6,29.95,SW,225,11.0,-999.0,62,0.00,,,0.00,Wunderground v.1.15,2013-08-09 19:00:00,
2013-08-09 15:05:00,78.2,62.7,29.95,SW,230,11.0,11.0,59,0.00,,,0.00,Wunderground v.1.15,2013-08-09 19:05:00,
2013-08-09 15:10:00,78.2,64.1,29.95,SW,225,10.0,-999.0,62,0.00,,,0.00,Wunderground v.1.15,2013-08-09 19:10:00,
2013-08-09 15:15:00,78.1,63.1,29.95,West,268,10.0,11.0,60,0.00,,,0.00,Wunderground v.1.15,2013-08-09 19:15:00,
2013-08-09 15:20:00,78.0,63.9,29.95,West,277,8.0,8.0,62,0.00,,,0.00,Wunderground v.1.15,2013-08-09 19:20:00,
2013-08-09 15:25:00,78.3,63.7,29.94,West,270,8.0,-999.0,61,0.00,,,0.00,Wunderground v.1.15,2013-08-09 19:25:00,
2013-08-09 15:30:00,77.8,63.7,29.94,WSW,254,9.0,10.0,62,0.00,,,0.00,Wunderground v.1.15,2013-08-09 19:30:00,
2013-08-09 15:35:00,77.4,64.3,29.94,SW,225,10.0,-999.0,64,0.00,,,0.00,Wunderground v.1.15,2013-08-09 19:35:00,
2013-08-09 15:40:00,77.2,64.1,29.94,West,272,10.0,10.0,64,0.00,,,0.00,Wunderground v.1.15,2013-08-09 19:40:00,
2013-08-09 15:45:00,77.4,63.8,29.94,SW,228,11.0,13.0,63,0.00,,,0.00,Wunderground v.1.15,2013-08-09 19:45:00,
2013-08-09 15:50:00,77.5,64.4,29.94,SW,225,9.0,-999.0,64,0.00,,,0.00,Wunderground v.1.15,2013-08-09 19:50:00,
2013-08-09 15:55:00,77.9,63.8,29.94,WSW,237,10.0,11.0,62,0.00,,,0.00,Wunderground v.1.15,2013-08-09 19:55:00,
2013-08-09 16:00:00,78.0,64.4,29.94,WSW,248,8.0,-999.0,63,0.00,,,0.00,Wunderground v.1.15,2013-08-09 20:00:00,
2013-08-09 16:05:00,77.9,64.3,29.94,WSW,251,8.0,9.0,63,0.00,,,0.00,Wunderground v.1.15,2013-08-09 20:05:00,
2013-08-09 16:10:00,78.0,63.9,29.94,West,270,9.0,-999.0,62,0.00,,,0.00,Wunderground v.1.15,2013-08-09 20:10:00,
2013-08-09 16:15:00,78.2,64.1,29.94,SW,235,9.0,14.0,62,0.00,,,0.00,Wunderground v.1.15,2013-08-09 20:15:00,
2013-08-09 16:20:00,78.4,64.3,29.94,SW,225,12.0,-999.0,62,0.00,,,0.00,Wunderground v.1.15,2013-08-09 20:20:00,
2013-08-09 16:25:00,78.4,64.3,29.94,SW,229,10.0,11.0,62,0.00,,,0.00,Wunderground v.1.15,2013-08-09 20:25:00,
2013-08-09 16:30:00,78.3,63.7,29.94,SW,228,9.0,9.0,61,0.00,,,0.00,Wunderground v.1.15,2013-08-09 20:30:00,
2013-08-09 16:35:00,78.1,64.5,29.94,WSW,248,7.0,-999.0,63,0.00,,,0.00,Wunderground v.1.15,2013-08-09 20:35:00,
2013-08-09 16:40:00,78.1,64.9,29.94,West,263,7.0,7.0,64,0.00,,,0.00,Wunderground v.1.15,2013-08-09 20:40:00,
2013-08-09 16:45:00,78.3,64.2,29.94,West,259,8.0,11.0,62,0.00,,,0.00,Wunderground v.1.15,2013-08-09 20:45:00,
2013-08-09 16:50:00,78.1,64.0,29.95,WSW,248,8.0,-999.0,62,0.00,,,0.00,Wunderground v.1.15,2013-08-09 20:50:00,
2013-08-09 16:55:00,77.7,63.6,29.95,WNW,294,8.0,8.0,62,0.00,,,0.00,Wunderground v.1.15,2013-08-09 20:55:00,
2013-08-09 17:00:00,77.7,63.6,29.95,West,270,6.0,-999.0,62,0.00,,,0.00,Wunderground v.1.15,2013-08-09 21:00:00,
2013-08-09 17:05:00,77.3,63.7,29.95,WSW,252,7.0,10.0,63,0.00,,,0.00,Wunderground v.1.15,2013-08-09 21:05:00,
2013-08-09 17:10:00,77.1,63.5,29.95,West,270,8.0,-999.0,63,0.00,,,0.00,Wunderground v.1.15,2013-08-09 21:10:00,
2013-08-09 17:15:00,76.8,63.7,29.95,WSW,242,7.0,10.0,64,0.00,,,0.00,Wunderground v.1.15,2013-08-09 21:15:00,
2013-08-09 17:20:00,76.8,63.7,29.95,WSW,248,8.0,-999.0,64,0.00,,,0.00,Wunderground v.1.15,2013-08-09 21:20:00,
2013-08-09 17:25:00,76.9,63.3,29.95,WSW,255,8.0,10.0,63,0.00,,,0.00,Wunderground v.1.15,2013-08-09 21:25:00,
2013-08-09 17:30:00,76.4,63.3,29.95,WSW,248,7.0,8.0,64,0.00,,,0.00,Wunderground v.1.15,2013-08-09 21:30:00,
2013-08-09 17:35:00,76.1,63.5,29.95,WSW,248,7.0,-999.0,65,0.00,,,0.00,Wunderground v.1.15,2013-08-09 21:35:00,
2013-08-09 17:40:00,76.0,63.8,29.95,WSW,252,7.0,7.0,66,0.00,,,0.00,Wunderground v.1.15,2013-08-09 21:40:00,
2013-08-09 17:45:00,76.1,63.9,29.95,WSW,237,6.0,7.0,66,0.00,,,0.00,Wunderground v.1.15,2013-08-09 21:45:00,
2013-08-09 17:50:00,75.9,64.2,29.94,SW,225,8.0,-999.0,67,0.00,,,0.00,Wunderground v.1.15,2013-08-09 21:50:00,
2013-08-09 17:55:00,75.1,63.0,29.94,SW,234,7.0,7.0,66,0.00,,,0.00,Wunderground v.1.15,2013-08-09 21:55:00,
2013-08-09 18:00:00,74.9,63.2,29.94,SW,225,7.0,-999.0,67,0.00,,,0.00,Wunderground v.1.15,2013-08-09 22:00:00,
2013-08-09 18:05:00,74.9,63.2,29.95,WSW,241,6.0,10.0,67,0.00,,,0.00,Wunderground v.1.15,2013-08-09 22:05:00,
2013-08-09 18:10:00,74.8,63.1,29.95,WSW,248,7.0,-999.0,67,0.00,,,0.00,Wunderground v.1.15,2013-08-09 22:10:00,
2013-08-09 18:15:00,74.8,63.1,29.94,WSW,244,6.0,6.0,67,0.00,,,0.00,Wunderground v.1.15,2013-08-09 22:15:00,
2013-08-09 18:20:00,74.8,63.1,29.95,WSW,248,6.0,-999.0,67,0.00,,,0.00,Wunderground v.1.15,2013-08-09 22:20:00,
2013-08-09 18:25:00,74.7,63.4,29.95,SW,222,6.0,6.0,68,0.00,,,0.00,Wunderground v.1.15,2013-08-09 22:25:00,
2013-08-09 18:30:00,74.8,63.5,29.94,SW,220,7.0,8.0,68,0.00,,,0.00,Wunderground v.1.15,2013-08-09 22:30:00,
2013-08-09 18:35:00,74.7,63.0,29.94,SW,225,7.0,9.0,67,0.00,,,0.00,Wunderground v.1.15,2013-08-09 22:35:00,
2013-08-09 18:40:00,74.5,63.2,29.94,SW,225,8.0,-999.0,68,0.00,,,0.00,Wunderground v.1.15,2013-08-09 22:40:00,
2013-08-09 18:45:00,74.6,63.3,29.95,SW,221,8.0,10.0,68,0.00,,,0.00,Wunderground v.1.15,2013-08-09 22:45:00,
2013-08-09 18:50:00,74.9,62.8,29.95,SW,225,8.0,-999.0,66,0.00,,,0.00,Wunderground v.1.15,2013-08-09 22:50:00,
2013-08-09 18:55:00,75.1,63.4,29.95,SW,222,8.0,8.0,67,0.00,,,0.00,Wunderground v.1.15,2013-08-09 22:55:00,
2013-08-09 19:00:00,75.0,63.3,29.94,SW,225,7.0,-999.0,67,0.00,,,0.00,Wunderground v.1.15,2013-08-09 23:00:00,
2013-08-09 19:05:00,74.6,63.3,29.94,SW,227,6.0,7.0,68,0.00,,,0.00,Wunderground v.1.15,2013-08-09 23:05:00,
2013-08-09 19:10:00,74.7,63.4,29.94,SW,225,6.0,-999.0,68,0.00,,,0.00,Wunderground v.1.15,2013-08-09 23:10:00,
2013-08-09 19:15:00,74.6,62.9,29.94,SW,232,6.0,6.0,67,0.00,,,0.00,Wunderground v.1.15,2013-08-09 23:15:00,
2013-08-09 19:20:00,74.4,63.1,29.94,SW,225,6.0,-999.0,68,0.00,,,0.00,Wunderground v.1.15,2013-08-09 23:20:00,
2013-08-09 19:25:00,74.0,63.2,29.94,SW,227,6.0,7.0,69,0.00,,,0.00,Wunderground v.1.15,2013-08-09 23:25:00,
2013-08-09 19:30:00,73.8,63.0,29.95,SW,225,4.0,-999.0,69,0.00,,,0.00,Wunderground v.1.15,2013-08-09 23:30:00,
2013-08-09 19:35:00,73.5,63.1,29.94,SW,228,4.0,5.0,70,0.00,,,0.00,Wunderground v.1.15,2013-08-09 23:35:00,
2013-08-09 19:40:00,73.2,63.2,29.94,SW,228,3.0,3.0,71,0.00,,,0.00,Wunderground v.1.15,2013-08-09 23:40:00,
2013-08-09 19:45:00,73.1,63.5,29.95,SW,225,3.0,-999.0,72,0.00,,,0.00,Wunderground v.1.15,2013-08-09 23:45:00,
2013-08-09 19:50:00,72.6,63.8,29.95,SW,228,3.0,3.0,74,0.00,,,0.00,Wunderground v.1.15,2013-08-09 23:50:00,
2013-08-09 19:55:00,72.2,63.8,29.95,SW,228,3.0,3.0,75,0.00,,,0.00,Wunderground v.1.15,2013-08-09 23:55:00,
2013-08-09 20:00:00,72.0,63.3,29.95,SW,225,3.0,-999.0,74,0.00,,,0.00,Wunderground v.1.15,2013-08-10 00:00:00,
2013-08-09 20:05:00,71.9,63.5,29.95,SW,227,3.0,3.0,75,0.00,,,0.00,Wunderground v.1.15,2013-08-10 00:05:00,
2013-08-09 20:10:00,71.9,63.2,29.95,SW,225,3.0,-999.0,74,0.00,,,0.00,Wunderground v.1.15,2013-08-10 00:10:00,
2013-08-09 20:15:00,71.7,63.4,29.95,SW,228,3.0,4.0,75,0.00,,,0.00,Wunderground v.1.15,2013-08-10 00:15:00,
2013-08-09 20:20:00,71.3,63.3,29.95,SW,228,4.0,5.0,76,0.00,,,0.00,Wunderground v.1.15,2013-08-10 00:20:00,
2013-08-09 20:25:00,71.2,63.2,29.95,SW,225,5.0,-999.0,76,0.00,,,0.00,Wunderground v.1.15,2013-08-10 00:25:00,
2013-08-09 20:30:00,70.6,63.0,29.95,SW,224,5.0,6.0,77,0.00,,,0.00,Wunderground v.1.15,2013-08-10 00:30:00,
2013-08-09 20:35:00,70.3,62.7,29.95,SW,224,6.0,6.0,77,0.00,,,0.00,Wunderground v.1.15,2013-08-10 00:35:00,
2013-08-09 20:40:00,70.3,62.7,29.95,N/A,-737280,0.0,-999.0,77,0.00,,,0.00,Wunderground v.1.15,2013-08-10 00:40:00,
2013-08-09 20:45:00,70.3,62.7,29.96,North,32767,-999.0,0.0,77,0.00,,,0.00,Wunderground v.1.15,2013-08-10 00:45:00,
2013-08-09 20:50:00,70.3,62.7,29.96,N/A,-737280,0.0,-999.0,77,0.00,,,0.00,Wunderground v.1.15,2013-08-10 00:50:00,
2013-08-09 20:55:00,70.2,62.6,29.96,North,32767,-999.0,0.0,77,0.00,,,0.00,Wunderground v.1.15,2013-08-10 00:55:00,
2013-08-09 21:00:00,70.2,62.6,29.97,North,32767,-999.0,0.0,77,0.00,,,0.00,Wunderground v.1.15,2013-08-10 01:00:00,
2013-08-09 21:05:00,70.2,62.3,29.97,N/A,-737280,0.0,-999.0,76,0.00,,,0.00,Wunderground v.1.15,2013-08-10 01:05:00,
2013-08-09 21:10:00,70.1,62.2,29.97,North,32767,-999.0,0.0,76,0.00,,,0.00,Wunderground v.1.15,2013-08-10 01:10:00,
2013-08-09 21:15:00,70.1,61.8,29.97,North,32767,-999.0,0.0,75,0.00,,,0.00,Wunderground v.1.15,2013-08-10 01:15:00,
2013-08-09 21:20:00,70.1,61.8,29.97,N/A,-737280,0.0,-999.0,75,0.00,,,0.00,Wunderground v.1.15,2013-08-10 01:20:00,
2013-08-09 21:25:00,70.1,61.8,29.97,North,32767,-999.0,0.0,75,0.00,,,0.00,Wunderground v.1.15,2013-08-10 01:25:00,
2013-08-09 21:30:00,70.2,61.9,29.97,N/A,-737280,0.0,-999.0,75,0.00,,,0.00,Wunderground v.1.15,2013-08-10 01:30:00,
2013-08-09 21:35:00,70.2,61.9,29.97,North,32767,-999.0,0.0,75,0.00,,,0.00,Wunderground v.1.15,2013-08-10 01:35:00,
2013-08-09 21:40:00,70.2,61.9,29.97,N/A,-737280,0.0,-999.0,75,0.00,,,0.00,Wunderground v.1.15,2013-08-10 01:40:00,
2013-08-09 21:45:00,70.1,61.8,29.97,North,32767,-999.0,0.0,75,0.00,,,0.00,Wunderground v.1.15,2013-08-10 01:45:00,
2013-08-09 21:50:00,70.2,61.9,29.98,North,32767,-999.0,0.0,75,0.00,,,0.00,Wunderground v.1.15,2013-08-10 01:50:00,
2013-08-09 21:55:00,70.2,61.9,29.98,N/A,-737280,0.0,-999.0,75,0.00,,,0.00,Wunderground v.1.15,2013-08-10 01:55:00,
2013-08-09 22:00:00,70.2,61.9,29.98,North,32767,-999.0,0.0,75,0.00,,,0.00,Wunderground v.1.15,2013-08-10 02:00:00,
2013-08-09 22:05:00,70.2,62.3,29.98,N/A,-737280,0.0,-999.0,76,0.00,,,0.00,Wunderground v.1.15,2013-08-10 02:05:00,
2013-08-09 22:10:00,70.1,62.2,29.98,North,32767,-999.0,0.0,76,0.00,,,0.00,Wunderground v.1.15,2013-08-10 02:10:00,
2013-08-09 22:15:00,70.1,61.8,29.98,North,32767,-999.0,0.0,75,0.00,,,0.00,Wunderground v.1.15,2013-08-10 02:15:00,
2013-08-09 22:20:00,70.2,61.9,29.98,N/A,-737280,0.0,-999.0,75,0.00,,,0.00,Wunderground v.1.15,2013-08-10 02:20:00,
2013-08-09 22:25:00,70.2,61.9,29.98,North,32767,-999.0,0.0,75,0.00,,,0.00,Wunderground v.1.15,2013-08-10 02:25:00,
2013-08-09 22:30:00,70.2,61.9,29.98,N/A,-737280,0.0,-999.0,75,0.00,,,0.00,Wunderground v.1.15,2013-08-10 02:30:00,
2013-08-09 22:35:00,70.2,61.9,29.98,North,32767,-999.0,0.0,75,0.00,,,0.00,Wunderground v.1.15,2013-08-10 02:35:00,
2013-08-09 22:40:00,70.1,62.2,29.98,North,32767,-999.0,0.0,76,0.00,,,0.00,Wunderground v.1.15,2013-08-10 02:40:00,
2013-08-09 22:45:00,69.9,62.0,29.98,N/A,-737280,0.0,-999.0,76,0.00,,,0.00,Wunderground v.1.15,2013-08-10 02:45:00,
2013-08-09 22:50:00,69.6,62.1,29.98,North,32767,-999.0,0.0,77,0.00,,,0.00,Wunderground v.1.15,2013-08-10 02:50:00,
2013-08-09 22:55:00,69.3,62.1,29.98,North,32767,-999.0,0.0,78,0.00,,,0.00,Wunderground v.1.15,2013-08-10 02:55:00,
2013-08-09 23:00:00,69.2,62.0,29.98,N/A,-737280,0.0,-999.0,78,0.00,,,0.00,Wunderground v.1.15,2013-08-10 03:00:00,
2013-08-09 23:05:00,68.7,61.9,29.98,North,32767,-999.0,0.0,79,0.00,,,0.00,Wunderground v.1.15,2013-08-10 03:05:00,
2013-08-09 23:10:00,68.6,61.8,29.98,N/A,-737280,0.0,-999.0,79,0.00,,,0.00,Wunderground v.1.15,2013-08-10 03:10:00,
2013-08-09 23:15:00,68.4,61.6,29.98,North,32767,-999.0,0.0,79,0.00,,,0.00,Wunderground v.1.15,2013-08-10 03:15:00,
2013-08-09 23:20:00,68.4,61.6,29.98,North,32767,-999.0,0.0,79,0.00,,,0.00,Wunderground v.1.15,2013-08-10 03:20:00,
2013-08-09 23:25:00,68.4,61.6,29.98,North,32767,-999.0,0.0,79,0.00,,,0.00,Wunderground v.1.15,2013-08-10 03:25:00,
2013-08-09 23:30:00,68.4,61.6,29.98,N/A,-737280,0.0,-999.0,79,0.00,,,0.00,Wunderground v.1.15,2013-08-10 03:30:00,
2013-08-09 23:35:00,68.5,61.7,29.98,North,32767,-999.0,0.0,79,0.00,,,0.00,Wunderground v.1.15,2013-08-10 03:35:00,
2013-08-09 23:40:00,68.6,61.8,29.99,N/A,-737280,0.0,-999.0,79,0.00,,,0.00,Wunderground v.1.15,2013-08-10 03:40:00,
2013-08-09 23:45:00,68.6,61.8,29.99,North,32767,-999.0,0.0,79,0.00,,,0.00,Wunderground v.1.15,2013-08-10 03:45:00,
2013-08-09 23:50:00,68.7,61.9,29.99,North,32767,-999.0,0.0,79,0.00,,,0.00,Wunderground v.1.15,2013-08-10 03:50:00,
2013-08-09 23:55:00,68.7,61.9,29.99,N/A,-737280,0.0,-999.0,79,0.00,,,0.00,Wunderground v.1.15,2013-08-10 03:55:00,